Location: Ferintosh
(52.7647°N, 112.9692°W)
Time: 23:16:09
(UTC+00:00)

A-11 Canister half - Pass Details

Date: 24 May 2024
Orbit: 1524 x 1683 km, 47.3° (Epoch: 20 June)

Event Time Altitude Azimuth Distance (km) Brightness Sun altitude
Rises 10:27:20 0° 285° (WNW) 4,781 11.3 -6.8°
Reaches altitude 10° 10:30:47 10° 276° (W) 3,817 10.7 -6.4°
Maximum altitude 10:39:00 33° 218° (SW) 2,514 9.6 -5.6°
Drops below altitude 10° 10:47:25 10° 160° (SSE) 3,907 10.9 -4.7°
Sets 10:51:01 0° 151° (SSE) 4,907 11.5 -4.3°
